PDT,Max TemperatureF,Mean TemperatureF,Min TemperatureF,Max Dew PointF,MeanDew PointF,Min DewpointF,Max Humidity, Mean Humidity, Min Humidity, Max Sea Level PressureIn, Mean Sea Level PressureIn, Min Sea Level PressureIn, Max VisibilityMiles, Mean VisibilityMiles, Min VisibilityMiles, Max Wind SpeedMPH, Mean Wind SpeedMPH, Max Gust SpeedMPH,PrecipitationIn, CloudCover, Events, WindDirDegrees
2013-7-1,89,74,60,68,64,61,100,72,40,30.05,29.98,29.94,10,10,9,6,0,,0.00,2,,330
2013-7-2,80,68,57,63,59,52,100,78,42,30.13,30.10,30.06,10,10,10,7,0,,0.00,4,,9
2013-7-3,78,66,55,59,53,46,100,67,34,30.17,30.12,30.06,10,10,10,6,1,,0.00,3,,336
2013-7-4,68,59,50,57,53,50,100,80,60,30.15,30.11,30.06,10,10,10,5,0,,0.00,6,,244
2013-7-5,73,63,53,55,54,52,100,77,50,30.06,30.03,29.98,10,10,10,7,0,,0.00,5,,290
2013-7-6,77,64,50,57,53,50,100,77,39,30.01,29.96,29.90,10,10,3,6,0,,0.00,4,,356
2013-7-7,75,63,51,61,56,52,100,86,53,29.99,29.95,29.92,10,9,0,0,0,,0.00,3,Fog,-1
2013-7-8,77,64,50,59,56,50,100,80,50,30.11,30.08,29.99,10,10,10,5,0,,0.00,4,,344
2013-7-9,84,68,51,63,56,50,100,70,30,30.13,30.08,30.02,10,9,0,6,0,,0.00,2,Fog,334
2013-7-10,73,62,51,57,53,48,100,77,47,30.10,30.05,29.98,10,10,10,7,1,,0.00,2,,280
2013-7-11,71,58,46,50,48,45,100,72,40,30.10,30.06,30.01,10,10,10,5,0,,0.00,3,,288
2013-7-12,68,56,44,52,49,45,100,81,52,30.13,30.06,30.03,10,10,6,0,0,,0.00,2,Rain,-1
2013-7-13,75,58,42,50,47,41,100,68,34,30.21,30.16,30.13,10,10,8,6,1,,0.00,3,,347
2013-7-14,82,63,44,54,46,37,100,60,21,30.15,30.09,30.00,10,10,2,6,0,,0.00,2,,330
2013-7-15,80,63,46,55,50,46,100,64,32,30.07,30.00,29.91,10,10,10,9,1,,0.00,3,,340
2013-7-16,82,66,50,59,54,50,100,65,37,29.93,29.88,29.82,10,10,10,4,0,,0.00,3,Rain,70
2013-7-17,69,61,51,61,56,52,100,80,60,30.22,30.13,29.93,10,10,10,5,0,,0.00,5,Rain,247
2013-7-18,77,64,50,59,56,50,100,80,50,30.25,30.20,30.14,10,10,8,0,0,,0.00,7,,-1
2013-7-19,80,65,50,61,56,50,100,80,48,30.19,30.13,30.06,10,9,0,6,0,,0.00,4,Fog,340
2013-7-20,77,64,50,61,57,50,100,86,54,30.12,30.06,29.99,10,8,0,5,0,,0.00,4,Fog,350
2013-7-21,77,64,50,59,56,50,100,84,50,30.01,29.98,29.93,10,9,0,4,0,,0.00,3,Fog,240
2013-7-22,78,66,55,59,57,55,100,82,47,30.09,30.04,29.98,10,9,2,5,0,,0.00,4,,330
2013-7-23,84,67,50,59,55,48,100,70,30,30.09,30.05,30.00,10,8,0,7,1,,0.00,5,Fog,340
2013-7-24,84,67,50,57,54,48,100,67,29,30.08,30.05,30.02,10,10,9,6,0,,0.00,4,,1
2013-7-25,84,67,50,57,52,45,100,66,25,30.13,30.09,30.05,10,10,2,7,0,,0.00,4,,346
2013-7-26,86,67,48,55,51,45,100,62,25,30.17,30.13,30.09,10,10,5,5,0,,0.00,2,,337
2013-7-27,77,62,46,52,49,46,100,67,39,30.20,30.12,30.03,10,10,10,5,0,,0.00,2,,319
2013-7-28,71,60,48,54,51,48,100,80,53,30.06,30.03,29.99,10,10,10,6,0,,0.00,4,,272
2013-7-29,75,65,55,55,53,50,94,70,44,30.04,30.01,29.98,10,10,10,5,0,,0.00,5,Rain,15
2013-7-30,78,64,50,59,55,50,100,81,44,30.16,30.12,30.04,10,10,9,0,0,,0.00,5,,-1
2013-7-31,71,62,53,61,57,54,100,88,64,30.14,30.10,30.03,10,9,2,4,0,,0.00,6,,280